SAS4467 ENVA-ENZV

Flight info

Callsign SAS4467
Flight time N/A
Altitude 34000
Route GOGOX DCT PIGED DCT ROPNO
Aircraft A320/M-SDE3FGHIRWY/LB1

Departure

Time N/A
Airport Trondheim Airport, Værnes (ENVA)

Arrival

Time 2026-05-06 19:47
Airport Stavanger Airport, Sola (ENZV)
Time Latitude Longitude Altitude Speed Heading
2026-05-06 19:03 62.25184 9.03971 31893 ft 428 kts 215°
2026-05-06 19:03 62.22666 9.00629 32170 ft 427 kts 215°
2026-05-06 19:04 62.20135 8.97278 32575 ft 425 kts 215°
2026-05-06 19:04 62.17620 8.93959 32935 ft 424 kts 215°
2026-05-06 19:04 62.15108 8.90657 33254 ft 424 kts 215°
2026-05-06 19:04 62.12551 8.87306 33539 ft 425 kts 215°
2026-05-06 19:05 62.10199 8.84213 33834 ft 425 kts 215°
2026-05-06 19:05 62.07683 8.80900 33955 ft 424 kts 215°
2026-05-06 19:05 62.05191 8.77625 33976 ft 419 kts 215°
2026-05-06 19:06 62.00238 8.71156 33978 ft 417 kts 215°
2026-05-06 19:06 61.95219 8.64949 33948 ft 419 kts 208°
2026-05-06 19:07 61.89725 8.60700 33985 ft 422 kts 204°
2026-05-06 19:07 61.84182 8.56560 33982 ft 423 kts 203°
2026-05-06 19:08 61.78628 8.52442 33984 ft 423 kts 203°
2026-05-06 19:08 61.73081 8.48332 33986 ft 423 kts 203°
2026-05-06 19:09 61.67528 8.44238 33983 ft 423 kts 203°
2026-05-06 19:09 61.61973 8.40160 33981 ft 422 kts 204°
2026-05-06 19:10 61.56436 8.36115 33993 ft 421 kts 204°
2026-05-06 19:10 61.50932 8.32107 33998 ft 421 kts 204°
2026-05-06 19:11 61.45398 8.28089 33999 ft 420 kts 204°
2026-05-06 19:11 61.39875 8.24089 33995 ft 420 kts 203°
2026-05-06 19:12 61.34340 8.20090 33991 ft 420 kts 204°
2026-05-06 19:12 61.29153 8.16359 33983 ft 420 kts 203°
2026-05-06 19:13 61.23619 8.12412 33984 ft 420 kts 203°
2026-05-06 19:13 61.18091 8.08485 33981 ft 420 kts 203°
2026-05-06 19:14 61.12512 8.04526 33994 ft 430 kts 203°
2026-05-06 19:14 61.06808 8.00478 33992 ft 433 kts 203°
2026-05-06 19:15 61.01107 7.96464 33989 ft 432 kts 203°
2026-05-06 19:15 60.95408 7.92459 33995 ft 432 kts 203°
2026-05-06 19:16 60.89744 7.88504 33996 ft 432 kts 203°
2026-05-06 19:16 60.84113 7.84596 33998 ft 420 kts 203°
2026-05-06 19:17 60.78612 7.80783 33999 ft 416 kts 204°
2026-05-06 19:17 60.73136 7.76990 34007 ft 415 kts 204°
2026-05-06 19:18 60.67665 7.73207 34009 ft 415 kts 204°
2026-05-06 19:18 60.62201 7.69448 34018 ft 415 kts 204°
2026-05-06 19:19 60.56729 7.65695 34019 ft 415 kts 203°
2026-05-06 19:19 60.51247 7.61969 33988 ft 415 kts 204°
2026-05-06 19:20 60.45780 7.58263 34010 ft 414 kts 204°
2026-05-06 19:20 60.40321 7.54573 34023 ft 413 kts 204°
2026-05-06 19:21 60.34869 7.50887 34038 ft 413 kts 204°
2026-05-06 19:21 60.29425 7.47215 34029 ft 412 kts 204°
2026-05-06 19:22 60.23977 7.43568 33991 ft 412 kts 204°
2026-05-06 19:22 60.21289 7.41644 33884 ft 410 kts 209°
2026-05-06 19:22 60.18717 7.39204 33613 ft 407 kts 211°
2026-05-06 19:22 60.16177 7.36732 33335 ft 404 kts 211°
2026-05-06 19:23 60.13659 7.34253 33062 ft 400 kts 211°
2026-05-06 19:23 60.11171 7.31798 32807 ft 398 kts 211°
2026-05-06 19:23 60.08686 7.29349 32542 ft 396 kts 212°
2026-05-06 19:23 60.06218 7.26937 32272 ft 392 kts 212°
2026-05-06 19:24 60.03783 7.24576 31822 ft 387 kts 212°
2026-05-06 19:24 60.01372 7.22244 31339 ft 382 kts 212°
2026-05-06 19:24 59.98998 7.19952 30858 ft 378 kts 212°
2026-05-06 19:24 59.96646 7.17682 30352 ft 372 kts 213°
2026-05-06 19:25 59.94336 7.15453 29889 ft 366 kts 213°
2026-05-06 19:25 59.92064 7.13264 29417 ft 359 kts 213°
2026-05-06 19:25 59.90580 7.11837 29130 ft 355 kts 213°
2026-05-06 19:25 59.88377 7.09721 28689 ft 349 kts 213°
2026-05-06 19:26 59.85606 7.07057 28144 ft 341 kts 214°
2026-05-06 19:26 59.83488 7.05023 27733 ft 335 kts 214°
2026-05-06 19:26 59.82102 7.03698 27470 ft 331 kts 214°
2026-05-06 19:26 59.80048 7.01732 27074 ft 326 kts 214°
2026-05-06 19:27 59.78019 6.99793 26693 ft 321 kts 214°
2026-05-06 19:27 59.76023 6.97894 26327 ft 316 kts 214°
2026-05-06 19:27 59.74067 6.96003 25856 ft 310 kts 217°
2026-05-06 19:27 59.72160 6.93873 25014 ft 319 kts 219°
2026-05-06 19:28 59.70354 6.91731 24172 ft 327 kts 219°
2026-05-06 19:28 59.68406 6.89371 23697 ft 327 kts 219°
2026-05-06 19:28 59.66473 6.87033 23277 ft 324 kts 219°
2026-05-06 19:28 59.64568 6.84744 22875 ft 319 kts 219°
2026-05-06 19:29 59.62676 6.82484 22481 ft 315 kts 219°
2026-05-06 19:29 59.60805 6.80257 22096 ft 313 kts 218°
2026-05-06 19:29 59.58948 6.78056 21713 ft 310 kts 218°
2026-05-06 19:29 59.57109 6.75887 21329 ft 306 kts 218°
2026-05-06 19:30 59.55290 6.73739 20946 ft 303 kts 218°
2026-05-06 19:30 59.53486 6.71612 20559 ft 300 kts 218°
2026-05-06 19:30 59.51699 6.69509 20184 ft 298 kts 218°
2026-05-06 19:30 59.49928 6.67424 19812 ft 296 kts 218°
2026-05-06 19:31 59.48166 6.65353 19435 ft 294 kts 218°
2026-05-06 19:31 59.46416 6.63298 19071 ft 292 kts 218°
2026-05-06 19:31 59.42931 6.59210 18301 ft 291 kts 217°
2026-05-06 19:32 59.41196 6.57180 17925 ft 289 kts 217°
2026-05-06 19:32 59.39474 6.55170 17563 ft 288 kts 217°
2026-05-06 19:32 59.37758 6.53168 17208 ft 286 kts 217°
2026-05-06 19:32 59.36051 6.51174 16852 ft 285 kts 217°
2026-05-06 19:33 59.34350 6.49188 16505 ft 285 kts 217°
2026-05-06 19:33 59.32649 6.47205 16154 ft 285 kts 217°
2026-05-06 19:33 59.30947 6.45227 15810 ft 285 kts 217°
2026-05-06 19:33 59.29240 6.43244 15460 ft 285 kts 217°
2026-05-06 19:34 59.27537 6.41266 15091 ft 285 kts 217°
2026-05-06 19:34 59.25825 6.39276 14706 ft 287 kts 217°
2026-05-06 19:34 59.24105 6.37283 14346 ft 288 kts 216°
2026-05-06 19:34 59.22379 6.35292 13987 ft 288 kts 216°
2026-05-06 19:35 59.20648 6.33299 13592 ft 289 kts 216°
2026-05-06 19:35 59.18917 6.31306 13222 ft 287 kts 216°
2026-05-06 19:35 59.17202 6.29339 12851 ft 286 kts 215°
2026-05-06 19:35 59.15494 6.27384 12475 ft 283 kts 215°
2026-05-06 19:36 59.13803 6.25446 12135 ft 281 kts 215°
2026-05-06 19:36 59.12120 6.23516 11775 ft 280 kts 215°
2026-05-06 19:36 59.10440 6.21592 11415 ft 280 kts 215°
2026-05-06 19:36 59.08759 6.19668 11049 ft 280 kts 214°
2026-05-06 19:37 59.07078 6.17748 10670 ft 280 kts 214°
2026-05-06 19:37 59.05397 6.15836 10300 ft 281 kts 214°
2026-05-06 19:37 59.03717 6.13926 10132 ft 279 kts 214°
2026-05-06 19:37 59.02047 6.12026 10038 ft 279 kts 214°
2026-05-06 19:38 59.00361 6.10101 9724 ft 284 kts 214°
2026-05-06 19:38 58.98652 6.08152 9244 ft 285 kts 213°
2026-05-06 19:38 58.96943 6.06207 8824 ft 285 kts 213°
2026-05-06 19:38 58.95239 6.04274 8388 ft 285 kts 213°
2026-05-06 19:39 58.93561 6.02372 7946 ft 284 kts 213°
2026-05-06 19:39 58.91843 6.00430 7534 ft 283 kts 213°
2026-05-06 19:39 58.90124 5.98489 7005 ft 287 kts 213°
2026-05-06 19:39 58.88394 5.96540 6532 ft 288 kts 213°
2026-05-06 19:40 58.86660 5.94586 6062 ft 288 kts 212°
2026-05-06 19:40 58.84927 5.92635 5626 ft 288 kts 212°
2026-05-06 19:40 58.83219 5.90689 5276 ft 283 kts 213°
2026-05-06 19:40 58.81557 5.88808 4864 ft 270 kts 213°
2026-05-06 19:41 58.79963 5.87080 4430 ft 256 kts 211°
2026-05-06 19:41 58.78423 5.85498 4138 ft 248 kts 210°
2026-05-06 19:41 58.76893 5.84012 3948 ft 244 kts 208°
2026-05-06 19:41 58.75367 5.82667 3793 ft 238 kts 205°
2026-05-06 19:42 58.73867 5.81420 3585 ft 233 kts 209°
2026-05-06 19:42 58.72579 5.79668 3374 ft 220 kts 230°
2026-05-06 19:42 58.71799 5.77263 3144 ft 205 kts 257°
2026-05-06 19:42 58.71693 5.74675 2998 ft 189 kts 284°
2026-05-06 19:43 58.72124 5.72361 2836 ft 181 kts 305°
2026-05-06 19:43 58.72917 5.70547 2666 ft 175 kts 323°
2026-05-06 19:43 58.73924 5.69345 2528 ft 166 kts 340°
2026-05-06 19:43 58.75014 5.68848 2320 ft 159 kts 357°
2026-05-06 19:44 58.76095 5.68710 2115 ft 150 kts 346°
2026-05-06 19:44 58.77018 5.67938 1969 ft 140 kts 332°
2026-05-06 19:44 58.77841 5.66998 1874 ft 134 kts 332°
2026-05-06 19:44 58.78612 5.66114 1843 ft 129 kts 332°
2026-05-06 19:45 58.79391 5.65258 1717 ft 130 kts 336°
2026-05-06 19:45 58.80216 5.64631 1445 ft 127 kts 346°
2026-05-06 19:45 58.81085 5.64291 1254 ft 128 kts 352°
2026-05-06 19:45 58.81963 5.64081 1087 ft 129 kts 354°
2026-05-06 19:46 58.82847 5.63974 873 ft 128 kts 356°
2026-05-06 19:46 58.83737 5.63938 701 ft 126 kts 356°
2026-05-06 19:46 58.84621 5.63882 535 ft 126 kts 355°
2026-05-06 19:46 58.85495 5.63857 364 ft 125 kts 356°
2026-05-06 19:47 58.86376 5.63831 202 ft 126 kts 355°
2026-05-06 19:47 58.87250 5.63798 58 ft 125 kts 355°
2026-05-06 19:47 58.88037 5.63769 32 ft 92 kts 360°
2026-05-06 19:47 58.88507 5.63764 30 ft 41 kts 358°
2026-05-06 19:48 58.88675 5.63752 28 ft 14 kts 344°
2026-05-06 19:48 58.88707 5.63591 29 ft 14 kts 265°
2026-05-06 19:48 58.88690 5.63427 30 ft 12 kts 221°
2026-05-06 19:48 58.88619 5.63424 31 ft 10 kts 176°
2026-05-06 19:49 58.88554 5.63423 31 ft 9 kts 181°
2026-05-06 19:49 58.88497 5.63423 31 ft 8 kts 179°
2026-05-06 19:49 58.88446 5.63424 31 ft 7 kts 179°
2026-05-06 19:49 58.88396 5.63426 31 ft 8 kts 179°
2026-05-06 19:50 58.88338 5.63428 31 ft 9 kts 179°
2026-05-06 19:50 58.88280 5.63389 31 ft 8 kts 233°
2026-05-06 19:50 58.88254 5.63296 30 ft 10 kts 205°
2026-05-06 19:50 58.88192 5.63295 30 ft 8 kts 210°
2026-05-06 19:51 58.88188 5.63173 27 ft 13 kts 282°
2026-05-06 19:51 58.88195 5.63112 30 ft 0 kts 283°
2026-05-06 19:51 58.88196 5.63105 25 ft 0 kts 283°